Find Starlink 31940

NORAD ID: 59873 Int'l Des: 2024-098 Owner: SPXS Country: US Constellation: starlink operational
LEOCIRCULAR

現在のビュー

3D地球を読み込み中...

About Starlink 31940

Starlink 31940 (NORAD 59873) is a starlink constellation satellite (v2 mini) launched May 24, 2024 by SPXS of US. It operates in LEO, CIRCULAR orbit with a mass of 730.00 kg.

次回通過

Passes for default location (London). Set your location on the main map for personalized predictions.

高度履歴

Loading altitude history...

軌道要素

1 59873U 24098R 26235.55225212 -.00000092 00000-0 61874-5 0 9990
2 59873 43.0028 48.0247 0001288 264.1007 95.9698 15.27575536127456
Epoch: Aug 23, 2026 • Age: 11 hours

現在のステータス

高度 482.4 km
遠地点 / 近地点 N/A
速度 7.63 km/s
衛星直下点 13.45°N, 83.02°E
打ち上げ日 May 24, 2024
運用期間 2.2 years
タイプ internet

技術仕様

分類 Payload
質量 730.00 kg
乾燥質量 700.00 kg
総質量 730.00 kg
長さ 0.30 m
直径 4.10 m
スパン 29.00 m
形状 Box + pan
製造者 SPXS
バスタイプ Starlink V2M
フェーズステータス In Orbit
所有者/国 SPXS/US

Most Searched